EDT,Max TemperatureF,Mean TemperatureF,Min TemperatureF,Max Dew PointF,MeanDew PointF,Min DewpointF,Max Humidity, Mean Humidity, Min Humidity, Max Sea Level PressureIn, Mean Sea Level PressureIn, Min Sea Level PressureIn, Max VisibilityMiles, Mean VisibilityMiles, Min VisibilityMiles, Max Wind SpeedMPH, Mean Wind SpeedMPH, Max Gust SpeedMPH,PrecipitationIn, CloudCover, Events, WindDirDegrees
2013-3-1,53,45,37,34,30,27,77,56,39,30.06,30.01,29.96,10,10,10,13,5,18,0.00,2,,296
2013-3-2,48,41,34,32,29,25,87,62,44,30.06,30.02,29.99,10,10,10,14,7,24,0.00,5,,287
2013-3-3,45,38,32,31,24,18,87,59,35,30.13,30.08,30.04,10,10,10,13,6,21,0.00,4,,298
2013-3-4,62,45,29,38,23,13,84,46,17,30.26,30.17,30.11,10,10,10,9,3,,0.00,0,,299
2013-3-5,70,58,47,58,46,32,88,65,45,30.13,30.00,29.80,10,10,7,16,6,28,0.00,6,Rain,228
2013-3-6,52,44,36,36,27,18,78,52,34,30.19,30.08,29.97,10,10,10,18,11,29,0.00,1,,304
2013-3-7,61,46,30,39,31,28,96,66,31,30.29,30.23,30.18,10,10,2,10,1,16,0.00,0,,290
2013-3-8,66,49,32,40,33,27,98,64,23,30.33,30.27,30.22,10,9,0,10,2,,0.00,0,Fog,47
2013-3-9,70,51,33,40,32,22,97,56,17,30.36,30.28,30.23,10,8,1,12,2,,0.00,0,,110
2013-3-10,77,61,45,52,45,36,87,56,29,30.26,30.19,30.13,10,10,10,13,5,17,0.00,0,,138
2013-3-11,74,62,51,58,53,50,95,73,47,30.16,30.01,29.85,10,10,7,17,6,23,0.00,4,Rain,159
2013-3-12,69,58,47,61,44,28,94,63,22,30.10,29.96,29.83,10,9,3,13,6,21,0.00,3,Rain,292
2013-3-13,66,54,42,36,26,8,75,38,11,30.24,30.17,30.10,10,10,10,17,6,28,0.00,0,,309
2013-3-14,59,46,34,36,22,16,85,41,18,30.40,30.30,30.23,10,10,10,10,4,16,0.00,0,,322
2013-3-15,74,54,33,39,33,22,96,52,20,30.30,30.20,30.09,10,10,7,12,3,18,0.00,0,,243
2013-3-16,78,66,54,50,42,35,73,45,21,30.13,30.06,29.97,10,10,10,16,7,25,0.00,0,,252
2013-3-17,73,63,53,59,54,50,94,71,47,30.10,30.04,29.99,10,10,7,10,5,18,0.00,4,Rain,231
2013-3-18,79,68,57,63,58,54,95,80,53,30.07,29.98,29.84,10,8,2,14,4,22,0.00,7,Rain-Thunderstorm,184
2013-3-19,76,65,52,57,42,17,96,57,11,30.07,30.00,29.89,10,10,2,10,5,22,0.00,2,Rain,316
2013-3-20,67,55,43,40,28,16,81,44,14,30.15,30.03,29.93,10,10,10,9,2,,0.00,2,,352
2013-3-21,60,49,38,34,24,13,85,43,16,30.01,29.96,29.92,10,10,10,14,5,23,0.00,0,,300
2013-3-22,56,47,38,46,35,22,88,63,38,30.12,30.06,29.99,10,10,7,8,2,,0.00,7,Rain,100
2013-3-23,62,54,47,54,48,42,92,79,67,30.08,29.94,29.81,10,10,7,16,4,23,0.00,8,Rain-Thunderstorm,109
2013-3-24,69,61,53,59,55,39,95,84,44,29.82,29.63,29.57,10,9,2,16,6,26,0.00,7,Rain-Thunderstorm,21
2013-3-25,58,50,41,41,25,12,63,39,16,30.10,29.90,29.72,10,10,10,22,12,34,0.00,0,,295
2013-3-26,52,43,34,26,23,19,68,48,29,30.30,30.18,30.11,10,10,10,15,8,24,0.00,3,,304
2013-3-27,60,46,32,35,25,17,87,52,19,30.37,30.31,30.25,10,10,10,13,2,17,0.00,0,,305
2013-3-28,67,50,33,38,28,19,95,55,16,30.38,30.31,30.24,10,10,2,12,2,18,0.00,0,,341
2013-3-29,72,54,35,44,33,24,97,57,18,30.38,30.30,30.22,10,9,1,9,1,,0.00,0,,319
2013-3-30,77,62,47,51,44,38,81,51,28,30.24,30.17,30.10,10,10,10,10,3,16,0.00,4,,232
2013-3-31,81,68,56,63,55,43,91,65,36,30.10,30.02,29.93,10,10,7,20,7,29,0.00,6,Rain-Thunderstorm,230